Погода в Безлесном

Россия / Кемеровская область (Кузбасс)     56°08′36″N   86°06′27″E
темп.,
°C
ветер,
м/с
пор.,
м/с
влажн.,
%
обл.,
%
осадки,
мм/ч
давл.,
гПа
погр.,
м
15 апреля, чт
чт1501:00+3зсз3899100 0.6 1023399
04:00+1ссз14100100 0.1 1024116
07:00+1юв11100100 0.1 102645
10:00+3юз2498100 0.0 1026244
13:00+4юз3799100 0.0 1025390
16:00+5юз4897100 0.0 1024459
19:00+4юз41198100 0.0 1022494
22:00+4юз51298100 0.0 1021480
16 апреля, пт
пт1601:00+3юз51398100 0.0 1019504
04:00+3юз61497100 0.1 1016540
07:00+3юз61397100 0.1 1015480
10:00+3юз61597100 0.0 1013691
13:00+6юз71695100 0.0 1012731
16:00+6юз71595100 0.5 1010775
19:00+4ссз5896100 1.1 1011497
22:000ссз3998100 1.5 1015611
17 апреля, сб
сб1701:00−1сз499195 2.3 1017723
04:00−4ссз4993100 0.2 1020655
07:00−6ссв488123 0.3 1023575
10:00−5ссв345842 0.0 1024745
13:00−2св224944 0.0 1023968
16:000всв1146100 0.0 10211003
19:00−1ююв0151100 0.0 1020712
22:00−3ююз1172100 0.0 102031
18 апреля, вс
вс1801:00−4юз278112 0.0 1020162
04:00−4юз38784 0.0 1020251
07:00−3юз3877100 0.0 1020350
10:00+1юз5857100 0.0 1019930
13:00+3ююз6847100 0.0 10171446
16:00+4ююз6948100 0.0 10151374
19:00+2ююз41058100 0.0 1013673
22:00+1ю41069100 0.0 1010465
19 апреля, пн
пн1901:000ю41274100 0.0 1005452
04:000ююв61494100 0.9 999678
07:00+1юз51296100 2.4 997857
10:00+1зюз8117531 0.4 9981287
13:00+1зюз71170100 0.5 10011175
16:00+2зсз7108498 0.3 10041037
19:00−1сз51091100 1.4 1011836
22:00−6з71380100 0.1 10141056